FW2664 Weather Reports


Display with metric or nautical units.
time (UTC)temp
F
wind
direction
speed
MPH
gust
MPH
rain 1hr
in
rain 24hr
in
rain mn
in
humidity
%
barometer
mb
20230208104005 54 30 0.0 0.0 0.00 0.00 0.00 92 1008.2
20230208103504 54 22 0.0 0.0 0.00 0.00 0.00 92 1008.2
20230208102004 54 22 0.0 0.0 0.00 0.00 0.00 92 1008.2
20230208101504 54 8 0.0 0.0 0.00 0.00 0.00 92 1008.2
20230208101005 54 338 0.0 0.0 0.00 0.00 0.00 92 1008.2
20230208100014 54 22 1.0 2.0 0.00 0.00 0.00 92 1008.1
20230208095004 54 22 0.0 2.0 0.00 0.00 0.00 92 1008.0
20230208094505 54 338 2.0 2.0 0.00 0.00 0.00 92 1007.9
20230208094004 53 12 1.0 2.0 0.00 0.00 0.00 92 1007.9
20230208093504 53 57 0.0 0.0 0.00 0.00 0.00 92 1007.7
20230208093007 53 315 0.0 0.0 0.00 0.00 0.00 92 1007.7
20230208092005 53 43 1.0 2.0 0.00 0.00 0.00 91 1007.6
20230208091006 53 49 0.0 0.0 0.00 0.00 0.00 91 1007.7
20230208090004 53 180 0.0 0.0 0.00 0.00 0.00 91 1007.5
20230208085504 53 191 0.0 0.0 0.00 0.00 0.00 91 1007.5
20230208084504 53 292 0.0 0.0 0.00 0.00 0.00 91 1007.5
20230208084005 53 74 0.0 0.0 0.00 0.00 0.00 90 1007.5
20230208083506 53 40 0.0 0.0 0.00 0.00 0.00 90 1007.5
20230208083005 53 315 0.0 0.0 0.00 0.00 0.00 89 1007.5
20230208082005 53 315 0.0 0.0 0.00 0.00 0.00 89 1007.4
20230208081504 53 315 0.0 0.0 0.00 0.00 0.00 89 1007.4
20230208081005 53 315 0.0 0.0 0.00 0.00 0.00 89 1007.4
20230208080005 53 315 0.0 0.0 0.00 0.00 0.00 89 1007.3
20230208075504 53 315 0.0 0.0 0.00 0.00 0.00 89 1007.3
20230208075005 53 315 0.0 0.0 0.00 0.00 0.00 89 1007.4
20230208074504 53 315 0.0 0.0 0.00 0.00 0.00 89 1007.5
20230208074005 53 315 0.0 0.0 0.00 0.00 0.00 89 1007.5
20230208073505 53 315 0.0 0.0 0.00 0.00 0.00 89 1007.5
20230208073005 53 315 0.0 0.0 0.00 0.00 0.00 89 1007.5
20230208072004 53 315 0.0 0.0 0.00 0.00 0.00 89 1007.5
20230208070005 53 315 0.0 0.0 0.00 0.00 0.00 89 1007.4
20230208065506 53 315 0.0 0.0 0.00 0.00 0.00 89 1007.4
20230208065007 53 315 0.0 0.0 0.00 0.00 0.00 89 1007.4
20230208064505 53 315 0.0 0.0 0.00 0.00 0.00 89 1007.6
20230208064006 53 315 0.0 0.0 0.00 0.00 0.00 89 1007.6
20230208063505 53 341 0.0 0.0 0.00 0.00 0.00 89 1007.6
20230208063005 53 22 0.0 0.0 0.00 0.00 0.00 89 1007.6
20230208062505 53 236 0.0 0.0 0.00 0.00 0.00 89 1007.6
20230208061504 53 180 0.0 0.0 0.00 0.00 0.00 89 1007.7
20230208061005 53 180 0.0 0.0 0.00 0.00 0.00 89 1007.7
20230208060005 53 270 0.0 0.0 0.00 0.00 0.00 89 1007.7
20230208055505 53 315 2.0 3.0 0.00 0.00 0.00 86 1007.6
20230208054504 53 68 3.0 3.0 0.00 0.00 0.00 86 1007.4
20230208054005 53 68 3.0 3.0 0.00 0.00 0.00 86 1007.4
20230208053504 53 68 3.0 3.0 0.00 0.00 0.00 86 1007.4
20230208052505 53 68 3.0 3.0 0.00 0.00 0.00 86 1007.3
20230208052005 53 68 3.0 3.0 0.00 0.00 0.00 86 1007.3
20230208051505 53 68 3.0 3.0 0.00 0.00 0.00 86 1007.3
20230208051005 53 68 3.0 3.0 0.00 0.00 0.00 86 1007.4
20230208050005 53 68 3.0 3.0 0.00 0.00 0.00 86 1007.4
20230208045005 53 68 3.0 3.0 0.00 0.00 0.00 86 1007.4
20230208044504 53 68 3.0 3.0 0.00 0.00 0.00 86 1007.4
20230208044004 53 68 3.0 3.0 0.00 0.00 0.00 86 1007.4
20230208043506 53 68 3.0 3.0 0.00 0.00 0.00 86 1007.4
20230208043005 53 68 3.0 3.0 0.00 0.00 0.00 86 1007.4
20230208042005 53 68 3.0 3.0 0.00 0.00 0.00 86 1007.5
20230208041504 53 68 3.0 3.0 0.00 0.00 0.00 86 1007.5
20230208035507 53 68 3.0 3.0 0.00 0.00 0.00 86 1007.2
20230208034006 53 68 3.0 3.0 0.00 0.00 0.00 86 1007.2
20230208033504 53 68 3.0 3.0 0.00 0.00 0.00 86 1007.3
20230208033004 53 68 3.0 3.0 0.00 0.00 0.00 86 1007.3
20230208032505 53 68 3.0 3.0 0.00 0.00 0.00 86 1007.3
20230208032006 53 68 3.0 3.0 0.00 0.00 0.00 86 1007.3
20230208031505 53 68 3.0 3.0 0.00 0.00 0.00 86 1007.3
20230208030005 58 68 0.0 0.0 0.00 0.00 0.00 74 1007.2
20230208025004 58 68 0.0 0.0 0.00 0.00 0.00 74 1007.1
20230208024005 58 68 0.0 0.0 0.00 0.00 0.00 74 1007.1
20230208023504 58 68 0.0 0.0 0.00 0.00 0.00 74 1007.2
20230208023004 58 68 0.0 0.0 0.00 0.00 0.00 74 1007.2
20230208022505 58 68 0.0 0.0 0.00 0.00 0.00 74 1007.2
20230208022007 58 68 0.0 0.0 0.00 0.00 0.00 74 1007.2
20230208021504 58 68 0.0 0.0 0.00 0.00 0.00 74 1007.2
20230208021005 58 68 0.0 0.0 0.00 0.00 0.00 74 1007.2
20230208020004 58 68 0.0 0.0 0.00 0.00 0.00 74 1007.3
20230208015505 58 68 0.0 0.0 0.00 0.00 0.00 74 1007.3
20230208015006 58 68 0.0 0.0 0.00 0.00 0.00 74 1007.1
20230208014504 58 68 0.0 0.0 0.00 0.00 0.00 74 1007.1
20230208014005 58 68 0.0 0.0 0.00 0.00 0.00 74 1007.1
20230208013505 58 68 0.0 0.0 0.00 0.00 0.00 74 1007.1
20230208013005 58 68 0.0 0.0 0.00 0.00 0.00 74 1007.1
20230208012505 58 68 0.0 0.0 0.00 0.00 0.00 74 1007.1
20230208012006 58 68 0.0 0.0 0.00 0.00 0.00 74 1007.1
20230208011505 58 68 0.0 0.0 0.00 0.00 0.00 74 1007.1
20230208011006 58 68 0.0 0.0 0.00 0.00 0.00 74 1006.9
20230208010004 58 68 0.0 0.0 0.00 0.00 0.00 74 1007.0
20230208005505 58 68 0.0 0.0 0.00 0.00 0.00 74 1007.0
20230208005005 58 68 0.0 0.0 0.00 0.00 0.00 74 1007.0
20230208004505 58 68 0.0 0.0 0.00 0.00 0.00 74 1006.9
20230208004005 58 73 0.0 1.0 0.00 0.00 0.00 73 1006.9
20230208003504 64 270 1.0 1.0 0.00 0.00 0.00 61 1006.7
20230208003005 64 270 1.0 1.0 0.00 0.00 0.00 61 1006.7
20230208002504 64 270 1.0 1.0 0.00 0.00 0.00 61 1006.7
20230208002006 64 270 1.0 1.0 0.00 0.00 0.00 61 1006.6
20230208001505 64 270 1.0 1.0 0.00 0.00 0.00 61 1006.6
20230208000004 64 270 1.0 1.0 0.00 0.00 0.00 61 1006.5
20230207235505 64 270 1.0 1.0 0.00 0.00 0.00 61 1006.5
20230207235006 64 270 1.0 1.0 0.00 0.00 0.00 61 1006.5
20230207234504 64 270 1.0 1.0 0.00 0.00 0.00 61 1006.5
20230207234006 64 270 1.0 1.0 0.00 0.00 0.00 61 1006.5
20230207233504 64 270 1.0 1.0 0.00 0.00 0.00 61 1006.3
20230207233005 64 270 1.0 1.0 0.00 0.00 0.00 61 1006.3
20230207232504 64 270 1.0 1.0 0.00 0.00 0.00 61 1006.3
20230207232005 64 270 1.0 3.0 0.00 0.00 0.00 61 1006.3
20230207230004 66 240 3.0 5.0 0.00 0.00 0.00 58 1006.0
20230207225505 66 241 3.0 5.0 0.00 0.00 0.00 59 1006.0
20230207225006 66 261 3.0 3.0 0.00 0.00 0.00 59 1006.0
20230207224005 67 202 3.0 5.0 0.00 0.00 0.00 57 1005.9
20230207223504 67 254 2.0 3.0 0.00 0.00 0.00 58 1005.9
20230207223005 67 262 5.0 7.0 0.00 0.00 0.00 58 1005.9
20230207222504 67 202 3.0 5.0 0.00 0.00 0.00 58 1005.9
20230207222006 67 145 2.0 6.0 0.00 0.00 0.00 58 1005.9
20230207221505 67 225 5.0 6.0 0.00 0.00 0.00 58 1005.9
20230207221005 67 180 3.0 6.0 0.00 0.00 0.00 58 1005.8
20230207220004 67 116 3.0 7.0 0.00 0.00 0.00 57 1005.6
20230207215506 67 228 5.0 7.0 0.00 0.00 0.00 57 1005.6
20230207213506 67 205 2.0 3.0 0.00 0.00 0.00 57 1005.7
20230207213007 67 227 3.0 3.0 0.00 0.00 0.00 56 1005.7
20230207212508 68 255 4.0 6.0 0.00 0.00 0.00 55 1005.6
20230207212007 68 262 6.0 7.0 0.00 0.00 0.00 55 1005.6
20230207211006 69 252 3.0 6.0 0.00 0.00 0.00 54 1005.5
20230207210005 69 225 5.0 7.0 0.00 0.00 0.00 54 1005.6
20230207205504 69 251 4.0 6.0 0.00 0.00 0.00 53 1005.6
20230207204505 68 225 2.0 3.0 0.00 0.00 0.00 56 1005.5
20230207204005 67 270 3.0 6.0 0.00 0.00 0.00 56 1005.5
20230207203505 67 248 3.0 3.0 0.00 0.00 0.00 56 1005.6
20230207203004 67 190 2.0 6.0 0.00 0.00 0.00 56 1005.6
20230207202505 67 243 3.0 6.0 0.00 0.00 0.00 56 1005.5
20230207202005 67 181 5.0 9.0 0.00 0.00 0.00 56 1005.5
20230207201504 67 225 3.0 6.0 0.00 0.00 0.00 56 1005.5
20230207201005 67 225 5.0 7.0 0.00 0.00 0.00 55 1005.7
20230207200005 67 202 4.0 6.0 0.00 0.00 0.00 56 1005.5
20230207195504 68 168 5.0 7.0 0.00 0.00 0.00 56 1005.5
20230207194504 69 241 3.0 6.0 0.00 0.00 0.00 54 1005.5
20230207194005 70 255 6.0 10.0 0.00 0.00 0.00 52 1005.5
20230207193504 70 251 5.0 10.0 0.00 0.00 0.00 53 1005.6
20230207192506 69 237 6.0 9.0 0.00 0.00 0.00 54 1005.7
20230207191505 68 129 6.0 7.0 0.00 0.00 0.00 55 1005.8
20230207190004 68 251 5.0 7.0 0.00 0.00 0.00 56 1005.9
20230207185504 67 220 6.0 8.0 0.00 0.00 0.00 57 1005.9
20230207184506 68 256 4.0 10.0 0.00 0.00 0.00 55 1006.1
20230207184005 67 271 5.0 7.0 0.00 0.00 0.00 55 1006.1
20230207183504 69 215 3.0 6.0 0.00 0.00 0.00 55 1006.5
20230207183004 68 180 5.0 8.0 0.00 0.00 0.00 54 1006.5
20230207182005 68 154 6.0 8.0 0.00 0.00 0.00 53 1006.7
20230207181505 68 202 5.0 7.0 0.00 0.00 0.00 54 1006.7
20230207181005 67 257 3.0 9.0 0.00 0.00 0.00 54 1006.9
20230207180004 65 262 3.0 6.0 0.00 0.00 0.00 57 1007.0
20230207175504 66 256 3.0 5.0 0.00 0.00 0.00 57 1007.0
20230207175005 65 227 5.0 6.0 0.00 0.00 0.00 57 1007.0
20230207174006 64 266 3.0 7.0 0.00 0.00 0.00 59 1007.3
20230207173504 64 225 5.0 8.0 0.00 0.00 0.00 58 1007.5
20230207172504 65 209 5.0 7.0 0.00 0.00 0.00 57 1007.5
20230207172004 66 241 5.0 7.0 0.00 0.00 0.00 55 1007.6
20230207171504 65 200 5.0 8.0 0.00 0.00 0.00 56 1007.6
20230207165505 67 202 6.0 9.0 0.00 0.00 0.00 53 1007.9
20230207165011 67 229 7.0 10.0 0.00 0.00 0.00 54 1007.9
20230207164504 67 253 7.0 13.0 0.00 0.00 0.00 54 1008.0
20230207164008 66 227 6.0 8.0 0.00 0.00 0.00 55 1008.0
20230207163505 66 193 6.0 9.0 0.00 0.00 0.00 56 1008.0
20230207163005 65 187 5.0 9.0 0.00 0.00 0.00 56 1008.0
20230207162505 64 191 6.0 9.0 0.00 0.00 0.00 58 1008.1
20230207161505 64 216 5.0 8.0 0.00 0.00 0.00 57 1008.2
20230207161005 65 219 6.0 8.0 0.00 0.00 0.00 56 1008.0
20230207155505 62 146 6.0 8.0 0.00 0.00 0.00 55 1008.1
20230207155006 61 162 5.0 7.0 0.00 0.00 0.00 55 1008.1
20230207154506 61 158 5.0 6.0 0.00 0.00 0.00 55 1008.1
20230207154005 60 202 6.0 8.0 0.00 0.00 0.00 54 1008.1
20230207153505 60 189 4.0 8.0 0.00 0.00 0.00 53 1008.1
20230207153005 59 196 5.0 6.0 0.00 0.00 0.00 54 1008.1
20230207152504 59 157 5.0 7.0 0.00 0.00 0.00 53 1008.1
20230207152007 58 172 5.0 8.0 0.00 0.00 0.00 53 1008.1
20230207151504 58 164 3.0 6.0 0.00 0.00 0.00 52 1008.1
20230207150004 56 172 5.0 8.0 0.00 0.00 0.00 52 1008.0
20230207145504 57 127 3.0 5.0 0.00 0.00 0.00 51 1008.0
20230207144505 55 248 3.0 5.0 0.00 0.00 0.00 51 1007.9
20230207144006 54 180 3.0 3.0 0.00 0.00 0.00 52 1007.9
20230207143506 54 194 2.0 3.0 0.00 0.00 0.00 52 1007.8
20230207143005 54 225 2.0 2.0 0.00 0.00 0.00 52 1007.8
20230207142504 54 225 4.0 5.0 0.00 0.00 0.00 52 1007.6
20230207142004 54 180 4.0 6.0 0.00 0.00 0.00 52 1007.6
20230207140005 53 180 3.0 6.0 0.00 0.00 0.00 53 1007.3
20230207135505 53 180 4.0 6.0 0.00 0.00 0.00 54 1007.3
20230207135005 52 248 1.0 2.0 0.00 0.00 0.00 56 1007.3
20230207134506 52 248 2.0 2.0 0.00 0.00 0.00 56 1007.2
20230207134005 51 248 1.0 3.0 0.00 0.00 0.00 57 1007.2
20230207133505 51 225 0.0 0.0 0.00 0.00 0.00 57 1007.2
20230207133007 51 237 0.0 3.0 0.00 0.00 0.00 58 1007.2
20230207132505 50 158 3.0 3.0 0.00 0.00 0.00 57 1006.9
20230207132005 50 158 3.0 3.0 0.00 0.00 0.00 57 1006.9
20230207131505 50 158 6.0 8.0 0.00 0.00 0.00 57 1006.9
20230207131006 48 135 6.0 7.0 0.00 0.00 0.00 61 1006.7
20230207130004 48 158 2.0 2.0 0.00 0.00 0.00 61 1006.8
20230207125504 47 180 2.0 5.0 0.00 0.00 0.00 65 1006.8
20230207125005 45 135 2.0 2.0 0.00 0.00 0.00 69 1006.8
20230207124504 44 90 2.0 2.0 0.00 0.00 0.00 70 1006.8
20230207123504 41 171 1.0 2.0 0.00 0.00 0.00 80 1006.6
20230207123006 40 116 1.0 2.0 0.00 0.00 0.00 83 1006.6
20230207122006 39 56 0.0 0.0 0.00 0.00 0.00 89 1006.6
20230207121504 39 60 0.0 0.0 0.00 0.00 0.00 89 1006.6
20230207121005 39 73 0.0 0.0 0.00 0.00 0.00 89 1006.7
20230207120004 39 72 0.0 0.0 0.00 0.00 0.00 86 1006.6
20230207115505 39 108 0.0 0.0 0.00 0.00 0.00 85 1006.6
20230207115007 40 1 0.0 0.0 0.00 0.00 0.00 85 1006.6
20230207114506 40 180 0.0 0.0 0.00 0.00 0.00 84 1006.3
20230207113505 40 166 0.0 0.0 0.00 0.00 0.00 84 1006.2
20230207112505 40 171 0.0 0.0 0.00 0.00 0.00 84 1006.1
20230207112008 40 100 0.0 1.0 0.00 0.00 0.00 85 1006.1
20230207111505 40 2 0.0 2.0 0.00 0.00 0.00 85 1006.1
20230207111006 40 78 2.0 2.0 0.00 0.00 0.00 85 1006.1
20230207110006 40 71 0.0 0.0 0.00 0.00 0.00 82 1006.1
20230207105504 39 338 0.0 0.0 0.00 0.00 0.00 82 1006.1
20230207104506 39 69 0.0 0.0 0.00 0.00 0.00 82 1005.9